Flag for Russia Weather past 2 weeks in Chelyabinsk, Russia

Now
64 °F

Fog.


Feels Like: 64 °F
Forecast: 65 / 79 °F
Wind: 6 mph from North

Location: Chelyabinsk-Balandino

Current Time: Aug 22, 2014 at 4:22:37 AM

Latest Report: Aug 22, 2014 at 4:00 AM


Visibility: 0 mi

Pressure: 29.89 "Hg

Humidity: 100%

Dew point: 64 °F

Location of ChelyabinskLocation

Historic Weather in Chelyabinsk — Graph

°F

Chelyabinsk temperature yesterday

Maximum temperature yesterday: 88 °F (at 2:00 PM)
Minimum temperature yesterday: 70 °F (at 7:00 AM)
Average temperature yesterday: 77 °F

Past Weeks' High & Low Weather Summary

 TemperatureHumidityPressure
High88 °F (Aug 17, 4:30 PM)100% (Aug 8, 5:00 AM)30.18 "Hg (Aug 8, 5:00 AM)
Low45 °F (Aug 15, 4:30 AM)33% (Aug 14, 5:00 PM)29.47 "Hg (Aug 12, 3:00 AM)
Average68 °F71%29.87 "Hg
* Reported Aug 7 3:00 AM — Aug 22 3:30 AM, Chelyabinsk, Weather by CustomWeather, © 2014

Note: Actual official high and low records may vary slightly from our data, if they occured in-between our weather recording intervals... More about our weather records

Advertising

Chelyabinsk weather history for previous 24 hours

 ConditionsComfort  
Time TempWeatherWind HumidityBarometerVisibility
3:30 AM
Aug 22
66 °FFog.6 mph94%29.89 "Hg0 mi
3:00 AM66 °FFog.6 mph94%29.89 "Hg1 mi
2:30 AM66 °FFog.8 mph94%29.89 "Hg1 mi
2:00 AM66 °FFog.8 mph94%29.89 "Hg1 mi
1:30 AM68 °FFog.8 mph88%29.86 "Hg1 mi
1:00 AM70 °FFog.10 mph88%29.86 "Hg2 mi
12:30 AM70 °FFog.8 mph88%29.86 "Hg2 mi
12:00 AM70 °FSprinkles. Mostly cloudy.10 mph88%29.86 "Hg3 mi
11:30 PM
Aug 21
70 °FPartly cloudy.10 mph78%29.86 "HgN/A
11:00 PM72 °FPartly cloudy.13 mph73%29.86 "HgN/A
10:30 PM73 °FPartly cloudy.13 mph69%29.86 "HgN/A
10:00 PM72 °FPartly cloudy.10 mph69%29.86 "HgN/A
9:30 PM73 °FPartly cloudy.8 mph61%29.86 "HgN/A
9:00 PM75 °FBroken clouds.6 mph54%29.86 "HgN/A
8:30 PM77 °FBroken clouds.8 mph51%29.86 "HgN/A
8:00 PM77 °FBroken clouds.3 mph54%29.86 "HgN/A
7:30 PM79 °FBroken clouds.6 mph48%29.86 "HgN/A
7:00 PM81 °FBroken clouds.10 mph42%29.86 "HgN/A
6:30 PM82 °FBroken clouds.13 mph45%29.86 "HgN/A
6:00 PM82 °FBroken clouds.17 mph51%29.86 "HgN/A
5:30 PM84 °FBroken clouds.8 mph48%29.86 "HgN/A
5:00 PM82 °FBroken clouds.8 mph51%29.86 "HgN/A
4:30 PM81 °FBroken clouds.6 mph54%29.86 "HgN/A
4:00 PM81 °FBroken clouds.8 mph51%29.86 "HgN/A
3:30 PM84 °FPartly sunny.10 mph40%29.89 "HgN/A
3:00 PM86 °FScattered clouds.10 mph35%29.89 "HgN/A
2:30 PM88 °FScattered clouds.8 mph33%29.89 "HgN/A
2:00 PM88 °FScattered clouds.10 mph35%29.89 "HgN/A
1:30 PM86 °FScattered clouds.13 mph40%29.89 "HgN/A
1:00 PM84 °FScattered clouds.8 mph45%29.89 "HgN/A
12:30 PM84 °FScattered clouds.10 mph43%29.89 "HgN/A
12:00 PM81 °FScattered clouds.10 mph48%29.89 "HgN/A
11:30 AM79 °FBroken clouds.6 mph58%29.89 "HgN/A
11:00 AM75 °FBroken clouds.10 mph61%29.89 "HgN/A
10:30 AM75 °FBroken clouds.8 mph57%29.92 "HgN/A
10:00 AM73 °FMore clouds than sun.8 mph65%29.92 "HgN/A
9:30 AM73 °FMore clouds than sun.6 mph65%29.92 "HgN/A
9:00 AM72 °FMore clouds than sun.3 mph73%29.92 "HgN/A
8:30 AM70 °FMore clouds than sun.3 mph73%29.92 "HgN/A
8:00 AM72 °FMore clouds than sun.1 mph69%29.92 "HgN/A
7:30 AM72 °FMore clouds than sun.1 mph65%29.95 "HgN/A
7:00 AM70 °FMore clouds than sun.3 mph69%29.92 "HgN/A
6:30 AM73 °FMostly cloudy.6 mph57%29.95 "HgN/A
5:30 AM73 °FSprinkles. Mostly cloudy.8 mph61%29.95 "HgN/A
5:00 AM73 °FMostly cloudy.8 mph65%29.95 "HgN/A
4:30 AM73 °FMostly cloudy.6 mph65%29.95 "HgN/A
4:00 AM75 °FMostly cloudy.6 mph57%29.95 "HgN/A
Weather by CustomWeather, © 2014

See weather overviewHow to use our weather pages